OBJECT C, 56745

Orbit data source: Space-Track

You're viewing an Uncataloged Satellite

Recently launched and/or uncataloged satellites may have evolving metadata. Metadata may include but not limited to: Owner, Maufacturer, Bus, Motor, and Mission.

OBJECT C, 56745 is a satellite owned by KASI (KR) in SSO that was launched on Thu, 25 May 2023 UTC via an NURI launch vehicle from the Naro Space Center, South Korea (NSC). Unknown objects in Earth's orbit typically refer to objects detected orbiting the Earth but have not yet been identified or cataloged. These objects could be anything from previously untracked satellites, spent rocket stages, debris from satellite collisions, or even natural meteoroids temporarily captured by Earth's gravity.

Loading next visibility...
Identifier
56745, 2023-072C
Orbit
SSO
Country
Flag of KRKR / SKOR
Related business
Flag of KRKorea Astronomy and Space Science Institute (KR)
Manufacturer
KASI
Mission
Operational Civil Ast/Sci
Bus & Motor
CUBESAT 6U, Unknown motor
Mass
10 kg wet, 10 kg dry
Launch date (UTC)
2023-05-25 (3 years ago)
Launch vehicle
NURI
Launch site
Naro Space Center, South Korea (NSC)
Object type
Unknown
Shape & HBR
Box + 2 Pan, 0.3 m
Radar Cross Section
0.054 m², Medium (>0.1 m² and < 1m²)

Expand to show TLE details & history
Last TLE update: 8 hours ago

TLE from 8 hours ago
0 OBJECT C
1 56745U 23072C   26126.30809012  .00024628  00000-0  52640-3 0  9993
2 56745  97.5288 333.7995 0006044 137.3049 222.8670 15.44811321163779
Epoch: 2026-05-06T07:23Z
TLE epoch observation values (Epoch: 2026-05-06T07:23:38.986Z)
Latitude
0.00001°
Longitude
-1.28339°
Altitude
438.071 km
Speed
7.647 km/s
True Right ascension
22h 15m 11s
True Declination
0° 00' 00"
Sunlit
Object was in daylight at epoch
Visualization orbit readout
Latitude
Unknown
Longitude
Unknown
Altitude
Unknown
Speed
Unknown
Apparent Right ascension
Unknown
Apparent Declination
Unknown
Sunlit
N/A
Visualization observer readout
Local Sidereal Time
23:32:56
Azimuth
Unknown
Elevation
Unknown
Doppler factor
Unknown
Orbital elements
Apogee altitude
432.985 km
Perigee altitude
424.757 km
Semi-major axis
6,807.008 km
Eccentricity
0.0006
Inclination
97.5288°
RAAN
333.7995°
Arg. of periapsis
137.3049°
True anomaly
222.81991°
Mean anomaly
222.867°
Eccentric anomaly
222.84345°
Mean motion
3.86464 °/min
Orbital period
93.15 mins
BSTAR
0.0005264
Loading maneuver chart data...
Computing Atmospheric mass density...
Loading historical data...
Loading historical data...
Loading historical data...
Loading historical data...
Loading historical data...
Loading historical data...
Loading historical data...

Documentation

Showing up to 5 results
|